{"data":{"norad_id":67863,"epoch":"2026-05-25T04:14:38.550048Z","epoch_age_seconds":62923,"freshness":"FRESH","line1":"1 67863U 26034P   26145.17683507  .00016765  00000+0  57666-3 0  9997","line2":"2 67863  53.1587 209.1508 0001392  85.8454 274.2706 15.30212170 15742","mean_motion":15.3021217,"eccentricity":0.0001392,"inclination_deg":53.1587,"raan_deg":209.1508,"arg_perigee_deg":85.8454,"mean_anomaly_deg":274.2706,"bstar":0.00057666,"rev_number":1574,"period_min":94.104597272939,"perigee_km":474.22475068388,"apogee_km":476.13271378374,"semimajor_km":6853.3157322338,"source":"CELESTRAK","updated_at":"2026-05-25T13:38:21.727583Z"}}